Location: Bagnara
(41.0500°N, 14.7833°E)
Time: 17:34:30
(UTC+00:00)

USA 306 - Visible Passes

Search period start: 21 October 2021 00:00
Search period end: 31 October 2021 00:00
Orbit: 564 x 573 km, 54.0° (Epoch: 24 September)

Date Brightness Start Highest point End Pass type
(mag) Time Alt. Az. Time Alt. Az. Time Alt. Az.
21 Oct 3.2 04:31:55 10° SW 04:36:07 69° SE 04:40:20 10° NE visible
22 Oct 5.6 02:55:05 11° SSE 02:57:09 14° SE 02:59:28 10° E visible
22 Oct 2.8 04:32:17 10° SW 04:36:32 80° NW 04:40:46 10° NE visible
23 Oct 4.9 02:56:32 21° SE 02:57:22 22° SE 03:00:40 10° ENE visible
23 Oct 3.0 04:32:49 10° WSW 04:36:58 55° NW 04:41:09 10° NE visible
24 Oct 4.3 02:57:46 33° SE 02:57:46 33° SE 03:01:28 10° ENE visible
24 Oct 3.5 04:33:50 12° W 04:37:28 39° NNW 04:41:28 10° NE visible
25 Oct 4.0 02:58:48 43° E 02:58:48 43° E 03:02:04 10° ENE visible
25 Oct 3.9 04:34:52 13° W 04:38:01 30° NNW 04:41:46 10° NE visible
26 Oct 4.0 02:59:42 41° ENE 02:59:42 41° ENE 03:02:32 10° NE visible
26 Oct 4.3 04:35:45 13° WNW 04:38:35 24° NNW 04:42:03 10° NNE visible
27 Oct 4.3 03:00:29 33° NE 03:00:29 33° NE 03:02:55 10° NE visible
27 Oct 4.5 04:36:31 12° WNW 04:39:11 20° NNW 04:42:21 10° NNE visible
28 Oct 4.6 03:01:09 26° NNE 03:01:09 26° NNE 03:03:15 10° NE visible
28 Oct 4.8 04:37:11 11° NW 04:39:50 17° NNW 04:42:40 10° NNE visible
29 Oct 4.9 03:01:44 22° NNE 03:01:44 22° NNE 03:03:32 10° NE visible
29 Oct 4.9 04:37:56 10° NW 04:40:29 15° N 04:43:02 10° NNE visible
30 Oct 5.1 03:02:16 18° NNE 03:02:16 18° NNE 03:03:47 10° NE visible
30 Oct 5.0 04:38:49 10° NW 04:41:10 14° N 04:43:31 10° NNE visible
